Location: Cuzcurrita-R�o Tir�n
(42.5415°N, 2.9642°W)
Time: 01:42:21
(UTC+00:00)

CZ-4 R/B - Pass Details

Date: 17 January 2021
Orbit: 531 x 598 km, 97.7° (Epoch: 08 March)

Event Time Altitude Azimuth Distance (km) Brightness Sun altitude
Rises 17:49:27 0° 132° (SE) 2,815 4.7 -8.0°
Reaches altitude 10° 17:52:00 10° 117° (ESE) 1,909 3.7 -8.5°
Maximum altitude 17:55:09 21° 67° (ENE) 1,316 2.6 -9.0°
Drops below altitude 10° 17:58:16 10° 18° (NNE) 1,892 3.7 -9.6°
Sets 18:00:47 0° 2° (N) 2,782 4.7 -10.0°
